Location: Marysville Observatory
(48.1092°N, 122.1645°W)
Time: 10:16:57
(UTC-08:00)

Amateur Radio Satellites - All Passes

Search period start: 04 December 2016 09:46
Search period end: 05 December 2016 09:46
Location: Marysville Observatory, 48.1092°N, 122.1645°W

Satellite Date Start Highest point End Downlink Frequencies (MHz)
Time Altitude Azimuth
COMPASS 1 04 Dec 09:47:14 09:50:19 20° 296° (WNW) 09:53:24 437.405
TIGRISAT 04 Dec 10:04:08 10:08:36 42° 262° (W) 10:13:03 435.000
ANTELSAT 04 Dec 10:05:08 10:09:33 40° 263° (W) 10:13:57 437.575/2403.000
ZACube-1 04 Dec 10:06:40 10:10:33 34° 293° (WNW) 10:14:20 437.345
CUBEBUG 2 04 Dec 10:11:33 10:14:17 16° 301° (WNW) 10:16:57 437.445
FUNcube-1 04 Dec 10:15:39 10:19:23 30° 294° (WNW) 10:23:02 145.935
HUMSAT D 04 Dec 10:15:51 10:19:55 60° 101° (ESE) 10:23:55 437.325/437.525
Cosmos 2499 04 Dec 10:21:37 10:28:52 28° 60° (ENE) 10:35:44 435.465 / 435.565
JAS-2 04 Dec 10:27:16 10:33:45 77° 73° (ENE) 10:39:29 435.910
BUGSAT 1 04 Dec 10:30:24 10:33:35 21° 63° (ENE) 10:36:46 437.445
RS-15 04 Dec 10:33:14 10:44:47 48° 330° (NNW) 10:56:43 29.354- 29.394
DELFI C3 04 Dec 10:34:21 10:38:09 45° 289° (WNW) 10:41:57 145.870
NANOSAT C BR1 04 Dec 10:36:26 10:40:37 57° 72° (ENE) 10:44:49 145.865
AIST 2 04 Dec 10:38:01 10:41:20 23° 325° (NW) 10:44:42 435.215
QB50P2 04 Dec 10:40:16 10:44:31 72° 74° (ENE) 10:48:50 145.880/145.840
POLYITAN 1 04 Dec 10:40:51 10:45:07 69° 73° (ENE) 10:49:24 437.675
AO-85 04 Dec 10:46:04 10:50:07 73° 50° (NE) 10:54:00 145.980
Oscar 11 04 Dec 10:49:37 10:52:20 17° 300° (WNW) 10:55:04 145.826/435.025
QB50P1 04 Dec 10:54:32 10:58:50 88° 260° (W) 11:03:09 145.935-145.965
CUSAT 1 04 Dec 10:55:03 10:56:47 14° 289° (WNW) 10:58:23 437.405
HO-68 04 Dec 10:56:03 10:59:35 14° 317° (NW) 11:03:07 435.675
ESTCUBE 1 04 Dec 10:57:50 11:01:40 27° 94° (E) 11:05:30 437.505/2401.250
DUCHIFAT 1 04 Dec 10:59:35 11:03:51 89° 271° (W) 11:08:09 145.980
AISAT 04 Dec 11:13:09 11:16:12 18° 91° (E) 11:19:14 437.250
Gurwin Techsat 1B 04 Dec 11:13:16 11:14:59 12° 51° (NE) 11:16:43 435.225
POPSAT HIP 1 04 Dec 11:16:00 11:20:12 54° 260° (W) 11:24:26 437.405
DANDE 04 Dec 11:19:18 11:23:36 39° 284° (WNW) 11:26:57 436.750
GONETS M04 04 Dec 11:20:24 11:28:52 51° 72° (ENE) 11:37:18
PCSat 04 Dec 11:25:28 11:30:09 31° 111° (ESE) 11:34:52 145.827
BEESAT 3 04 Dec 11:25:58 11:26:11 10° 19° (NNE) 11:26:24 437.485
Oscar 19 04 Dec 11:29:29 11:33:38 25° 61° (ENE) 11:37:47 437.125/150
CUBEBUG 1 04 Dec 11:43:30 11:47:48 47° 99° (E) 11:52:05 437.445
VELOX 1 04 Dec 11:49:25 11:53:35 37° 97° (E) 11:57:44 145.980
HUMSAT D 04 Dec 11:52:37 11:55:05 16° 299° (WNW) 11:57:33 437.325/437.525
AO-7 04 Dec 12:01:55 12:06:41 17° 37° (NE) 12:11:27 29.400- 29.500
BUGSAT 1 04 Dec 12:04:34 12:08:39 46° 261° (W) 12:12:47 437.445
DX 1 04 Dec 12:09:11 12:13:09 32° 96° (E) 12:17:05 434.975-435.025
NANOSAT C BR1 04 Dec 12:14:01 12:16:42 16° 270° (W) 12:19:24 145.865
Cosmos 2499 04 Dec 12:14:19 12:23:06 80° 264° (W) 12:31:15 435.465 / 435.565
JAS-2 04 Dec 12:14:50 12:19:19 20° 269° (W) 12:23:29 435.910
QB50P2 04 Dec 12:18:47 12:20:49 13° 272° (W) 12:22:52 145.880/145.840
POLYITAN 1 04 Dec 12:19:11 12:21:24 14° 271° (W) 12:23:36 437.675
UKube-1 04 Dec 12:20:05 12:23:59 31° 96° (E) 12:27:51 .
AO-85 04 Dec 12:28:04 12:29:54 13° 250° (WSW) 12:31:43 145.980
50 SAT 04 Dec 12:29:53 12:33:28 89° 104° (ESE) 12:37:02 437.505
TISAT 1 04 Dec 12:31:11 12:33:00 12° 88° (E) 12:34:48 437.305
ESTCUBE 1 04 Dec 12:34:24 12:38:34 37° 292° (WNW) 12:42:43 437.505/2401.250
SPROUT 04 Dec 12:36:28 12:40:49 76° 103° (ESE) 12:45:05 437.525
AISAT 04 Dec 12:48:37 12:53:02 56° 289° (WNW) 12:57:24 437.250
Gurwin Techsat 1B 04 Dec 12:48:40 12:53:54 61° 70° (ENE) 12:59:10 435.225
RS-15 04 Dec 12:49:58 13:01:03 36° 4° (N) 13:12:10 29.354- 29.394
BEESAT 3 04 Dec 13:01:22 13:05:00 32° 42° (NE) 13:08:37 437.485
Oscar 19 04 Dec 13:07:40 13:12:39 52° 260° (W) 13:17:42 437.125/150
PCSat 04 Dec 13:08:04 13:13:20 51° 311° (NW) 13:18:39 145.827
GONETS M04 04 Dec 13:17:35 13:25:32 42° 274° (W) 13:33:31
CUBEBUG 1 04 Dec 13:20:22 13:23:48 22° 297° (WNW) 13:27:13 437.445
VELOX 1 04 Dec 13:26:07 13:29:55 28° 295° (WNW) 13:33:42 145.980
BEESAT 2 04 Dec 13:26:33 13:30:08 29° 40° (NE) 13:33:42 435.950
ITAMSAT 1 04 Dec 13:32:09 13:36:58 39° 66° (ENE) 13:41:48 435.822/435.867
ITUPSAT 1 04 Dec 13:37:52 13:40:14 14° 88° (E) 13:42:35 437.325
DX 1 04 Dec 13:45:26 13:49:17 30° 295° (WNW) 13:53:07 434.975-435.025
AO-7 04 Dec 13:49:42 13:57:39 54° 60° (ENE) 14:05:41 29.400- 29.500
AUBIESAT-1 04 Dec 13:54:10 13:56:57 16° 94° (E) 13:59:43 437.475
UKube-1 04 Dec 13:56:10 13:59:59 30° 294° (WNW) 14:03:46 .
M-CUBED/EXP-1 PRIME 04 Dec 14:04:08 14:07:56 24° 98° (E) 14:11:38 437.505
TISAT 1 04 Dec 14:04:54 14:09:09 74° 286° (WNW) 14:13:21 437.305
Cosmos 2499 04 Dec 14:09:13 14:14:43 19° 287° (WNW) 14:20:02 435.465 / 435.565
SPROUT 04 Dec 14:13:52 14:16:10 14° 301° (WNW) 14:18:28 437.525
Gurwin Techsat 1B 04 Dec 14:30:16 14:34:17 21° 269° (W) 14:38:18 435.225
MOZHAYETS 4 04 Dec 14:33:36 14:35:30 12° 87° (E) 14:37:25
BEESAT 3 04 Dec 14:39:01 14:42:40 34° 241° (WSW) 14:46:17 437.485
SWISSCUBE 04 Dec 14:43:10 14:47:54 61° 102° (ESE) 14:52:35 437.505
BEESAT 04 Dec 14:47:24 14:52:08 60° 102° (ESE) 14:56:50 436.000
PCSat 04 Dec 14:54:45 14:58:03 16° 334° (NNW) 15:01:21 145.827
BEESAT 2 04 Dec 15:04:14 15:08:02 40° 240° (WSW) 15:11:49 435.950
RS-15 04 Dec 15:04:44 15:16:55 56° 36° (NE) 15:28:51 29.354- 29.394
ITAMSAT 1 04 Dec 15:11:49 15:16:30 33° 264° (W) 15:21:12 435.822/435.867
ITUPSAT 1 04 Dec 15:13:53 15:18:41 81° 286° (WNW) 15:23:26 437.325
KKS-1 04 Dec 15:16:08 15:18:31 14° 89° (E) 15:20:53 437.445
NOAA 15 04 Dec 15:26:11 15:27:29 11° 50° (NE) 15:28:47 137.62
Cosmos 2491 04 Dec 15:26:24 15:28:43 11° 42° (NE) 15:31:01 435.465 / 435.565
AUBIESAT-1 04 Dec 15:27:12 15:31:50 72° 293° (WNW) 15:36:20 437.475
HORYU 2 04 Dec 15:31:33 15:35:09 24° 63° (ENE) 15:38:44 437.375
M-CUBED/EXP-1 PRIME 04 Dec 15:38:02 15:42:35 49° 296° (WNW) 15:47:01 437.505
AIST 2 04 Dec 15:38:23 15:41:51 24° 36° (NE) 15:45:18 435.215
GOMX 1 04 Dec 15:41:46 15:44:48 17° 57° (ENE) 15:47:56 467.674
AO-7 04 Dec 15:42:52 15:50:37 43° 261° (W) 15:58:28 29.400- 29.500
O/OREOS (USA 219) 04 Dec 15:49:01 15:52:50 27° 104° (ESE) 15:56:40 437.305
BRITE-PL 04 Dec 15:55:49 15:59:54 42° 68° (ENE) 16:04:16 437.365/2234.400
DOVE 4 04 Dec 16:01:47 16:04:05 13° 54° (NE) 16:06:26 437.250
CUBESAT XI-V 04 Dec 16:07:37 16:10:45 18° 90° (E) 16:13:54 437.345
MOZHAYETS 4 04 Dec 16:08:42 16:13:17 82° 287° (WNW) 16:17:50
HO-68 04 Dec 16:10:26 16:11:57 11° 37° (NE) 16:13:27 435.675
SWISSCUBE 04 Dec 16:21:51 16:25:16 20° 300° (WNW) 16:28:41 437.505
BEESAT 04 Dec 16:26:03 16:29:30 20° 300° (WNW) 16:32:57 436.000
NOAA 18 04 Dec 16:29:05 16:33:21 23° 58° (ENE) 16:37:38 137.9125
CUTE-I 04 Dec 16:33:21 16:38:05 33° 63° (ENE) 16:42:50 437.470
KKS-1 04 Dec 16:51:06 16:55:35 72° 288° (WNW) 17:00:03 437.445
ITUPSAT 1 04 Dec 16:53:37 16:55:45 13° 305° (NW) 16:57:52 437.325
Cubesat XI-IV 04 Dec 16:58:12 17:03:22 50° 68° (ENE) 17:08:34 437.490
ISS 04 Dec 16:59:01 17:01:48 26° 142° (SE) 17:04:37 145.825
NOAA 15 04 Dec 17:01:05 17:06:12 58° 70° (ENE) 17:11:22 137.62
STARS 04 Dec 17:01:39 17:06:06 73° 103° (ESE) 17:10:31 437.465
AUBIESAT-1 04 Dec 17:03:25 17:05:25 13° 311° (NW) 17:07:25 437.475
HORYU 2 04 Dec 17:07:11 17:11:27 44° 261° (W) 17:15:47 437.375
LilacSat-2 04 Dec 17:13:54 17:17:43 64° 74° (ENE) 17:21:32 437.200
AIST 2 04 Dec 17:16:29 17:20:41 62° 236° (WSW) 17:24:51 435.215
GOMX 1 04 Dec 17:17:40 17:22:14 73° 258° (WSW) 17:27:11 467.674
RS-15 04 Dec 17:17:47 17:29:52 63° 243° (WSW) 17:41:36 29.354- 29.394
Cosmos 2491 04 Dec 17:20:14 17:28:31 45° 69° (ENE) 17:36:44 435.465 / 435.565
O/OREOS (USA 219) 04 Dec 17:27:47 17:32:05 40° 303° (WNW) 17:36:23 437.305
CINEMA 3 04 Dec 17:30:18 17:34:10 23° 62° (ENE) 17:38:06 145.822/145.860
BRITE-PL 04 Dec 17:35:17 17:38:40 22° 269° (W) 17:42:13 437.365/2234.400
DOVE 4 04 Dec 17:36:04 17:40:51 77° 74° (ENE) 17:45:58 437.250
CUBESAT XI-V 04 Dec 17:43:56 17:48:32 60° 288° (WNW) 17:53:07 437.345
MOZHAYETS 4 04 Dec 17:47:55 17:49:42 12° 304° (NW) 17:51:29
HO-68 04 Dec 17:51:14 17:57:47 40° 60° (ENE) 18:04:21 435.675
YUBILEINY 04 Dec 17:54:36 18:01:15 25° 78° (ENE) 18:07:56 435.215
CUBEBUG 2 04 Dec 18:00:58 18:03:15 14° 57° (ENE) 18:05:32 437.445
CUTE 1.7 + AOD 2 04 Dec 18:05:41 18:09:08 25° 65° (ENE) 18:12:36 437.475
NOAA 18 04 Dec 18:08:01 18:13:32 67° 257° (WSW) 18:19:06 137.9125
Cosmos 2504 04 Dec 18:09:34 18:13:50 15° 70° (ENE) 18:18:12 435.465 / 435.565
CUTE-I 04 Dec 18:12:57 18:18:01 42° 262° (W) 18:23:07 437.470
CANX-2 04 Dec 18:22:44 18:26:42 42° 70° (ENE) 18:30:41 2200.000
PCSat 04 Dec 18:26:13 18:29:45 17° 27° (NNE) 18:33:15 145.827
KKS-1 04 Dec 18:30:16 18:31:20 11° 306° (NW) 18:32:23 437.445
ISS 04 Dec 18:34:48 18:38:06 73° 341° (NNW) 18:41:25 145.825
AAUSAT CUBESAT 2 04 Dec 18:37:21 18:40:24 20° 64° (ENE) 18:43:27 437.432
Oscar 11 04 Dec 18:38:36 18:39:08 10° 56° (NE) 18:39:40 145.826/435.025
Cubesat XI-IV 04 Dec 18:39:11 18:43:41 27° 267° (W) 18:48:13 437.490
STARS 04 Dec 18:39:18 18:41:54 16° 302° (WNW) 18:44:30 437.465
NOAA 15 04 Dec 18:42:22 18:46:22 22° 268° (W) 18:50:24 137.62
UWE-3 04 Dec 18:45:17 18:48:49 22° 63° (ENE) 18:52:19 435.000/436.395/437.385
LilacSat-2 04 Dec 18:50:51 18:52:25 12° 271° (W) 18:54:00 437.200
SEEDS 04 Dec 18:51:24 18:55:25 49° 71° (ENE) 18:59:27 437.485
COMPASS 1 04 Dec 19:04:52 19:08:50 47° 71° (ENE) 19:12:48 437.405
STRAND 1 04 Dec 19:05:38 19:10:25 38° 97° (E) 19:15:09 437.568
CINEMA 3 04 Dec 19:06:05 19:10:55 56° 261° (W) 19:15:53 145.822/145.860
AIST 1 04 Dec 19:09:02 19:12:15 21° 86° (E) 19:15:30
DOVE 4 04 Dec 19:16:25 19:19:13 15° 274° (W) 19:22:07 437.250
Cosmos 2491 04 Dec 19:17:14 19:25:28 49° 272° (W) 19:33:40 435.465 / 435.565
SO-50 04 Dec 19:22:40 19:24:35 12° 109° (ESE) 19:26:30 436.795
ZACube-1 04 Dec 19:29:13 19:33:19 34° 68° (ENE) 19:37:22 437.345
RS-15 04 Dec 19:33:07 19:39:38 16° 267° (W) 19:46:04 29.354- 29.394
CUBEBUG 2 04 Dec 19:34:23 19:39:09 85° 74° (ENE) 19:43:54 437.445
FUNcube-1 04 Dec 19:37:43 19:41:54 38° 68° (ENE) 19:46:02 145.935
CUSAT 1 04 Dec 19:38:16 19:41:02 23° 74° (ENE) 19:44:22 437.405
HO-68 04 Dec 19:38:28 19:45:22 50° 260° (W) 19:52:21 435.675
CUTE 1.7 + AOD 2 04 Dec 19:40:58 19:44:51 35° 263° (W) 19:48:44 437.475
YUBILEINY 04 Dec 19:48:20 19:57:04 81° 280° (W) 20:05:53 435.215
DELFI C3 04 Dec 19:49:44 19:52:22 18° 63° (ENE) 19:55:01 145.870
NOAA 18 04 Dec 19:54:47 19:55:15 10° 276° (W) 19:55:43 137.9125
Cosmos 2504 04 Dec 19:57:07 20:05:22 66° 93° (E) 20:14:06 435.465 / 435.565
CANX-2 04 Dec 19:59:31 20:02:45 21° 268° (W) 20:05:59 2200.000
PCSat 04 Dec 20:08:58 20:14:21 56° 50° (NE) 20:19:40 145.827
Oscar 11 04 Dec 20:10:11 20:14:29 74° 74° (ENE) 20:18:49 145.826/435.025
AAUSAT CUBESAT 2 04 Dec 20:11:41 20:15:36 43° 262° (W) 20:19:33 437.432
ISS 04 Dec 20:11:41 20:14:53 43° 1° (N) 20:18:05 145.825
UWE-3 04 Dec 20:20:23 20:24:57 52° 261° (W) 20:29:28 435.000/436.395/437.385
SEEDS 04 Dec 20:28:34 20:31:24 18° 269° (W) 20:34:14 437.485
COMPASS 1 04 Dec 20:41:46 20:44:38 18° 269° (W) 20:47:32 437.405
STRAND 1 04 Dec 20:44:59 20:49:31 33° 296° (WNW) 20:54:00 437.568
AIST 1 04 Dec 20:45:28 20:49:34 41° 285° (WNW) 20:53:43
SO-50 04 Dec 20:59:33 21:04:19 80° 127° (SE) 21:09:02 436.795
ZACube-1 04 Dec 21:05:36 21:09:36 30° 265° (W) 21:13:35 437.345
HUMSAT D 04 Dec 21:09:59 21:14:10 66° 74° (ENE) 21:18:19 437.325/437.525
CUBEBUG 2 04 Dec 21:14:13 21:16:22 13° 273° (W) 21:18:33 437.445
FUNcube-1 04 Dec 21:14:23 21:18:13 26° 266° (W) 21:22:02 145.935
PRISM 04 Dec 21:15:26 21:19:32 54° 101° (E) 21:23:37 437.425
CUSAT 1 04 Dec 21:20:01 21:22:53 24° 264° (W) 21:26:21 437.405
UNISAT 6 04 Dec 21:22:27 21:25:22 17° 90° (E) 21:28:14 437.425
DELFI C3 04 Dec 21:23:04 21:26:51 47° 261° (W) 21:30:41 145.870
ISS 04 Dec 21:48:20 21:51:40 76° 22° (NNE) 21:54:58 145.825
YUBILEINY 04 Dec 21:49:12 21:55:28 21° 305° (NW) 22:01:49 435.215
Oscar 11 04 Dec 21:49:13 21:51:09 13° 272° (W) 21:53:05 145.826/435.025
Cosmos 2504 04 Dec 21:51:53 21:59:26 34° 296° (WNW) 22:07:20 435.465 / 435.565
DANDE 04 Dec 21:52:06 21:54:35 33° 262° (W) 21:57:23 436.750
TIGRISAT 04 Dec 21:52:11 21:56:09 30° 95° (E) 21:59:59 435.000
PCSat 04 Dec 21:52:55 21:57:26 27° 250° (WSW) 22:01:55 145.827
ANTELSAT 04 Dec 21:53:13 21:57:15 33° 96° (E) 22:01:11 437.575/2403.000
SPROUT 04 Dec 22:00:16 22:02:00 12° 57° (ENE) 22:03:42 437.525
ESTCUBE 1 04 Dec 22:00:34 22:04:40 37° 68° (ENE) 22:08:48 437.505/2401.250
AISAT 04 Dec 22:13:38 22:17:14 25° 63° (ENE) 22:20:52 437.250
QB50P1 04 Dec 22:37:38 22:39:16 12° 88° (E) 22:40:52 145.935-145.965
SO-50 04 Dec 22:41:31 22:45:20 23° 327° (NNW) 22:49:06 436.795
DUCHIFAT 1 04 Dec 22:42:16 22:43:37 11° 87° (E) 22:44:57 145.980
CUBEBUG 1 04 Dec 22:42:33 22:46:49 60° 72° (ENE) 22:51:11 437.445
HUMSAT D 04 Dec 22:48:02 22:50:12 14° 271° (W) 22:52:22 437.325/437.525
VELOX 1 04 Dec 22:49:49 22:54:04 50° 70° (ENE) 22:58:23 145.980
PRISM 04 Dec 22:51:39 22:54:27 18° 299° (WNW) 22:57:15 437.425
POPSAT HIP 1 04 Dec 22:57:51 23:00:54 19° 91° (E) 23:03:56 437.405
UNISAT 6 04 Dec 22:58:06 23:02:29 56° 289° (WNW) 23:06:44 437.425
Cosmos 2499 04 Dec 23:04:42 23:10:11 19° 73° (ENE) 23:15:46 435.465 / 435.565
DX 1 04 Dec 23:07:49 23:11:56 43° 69° (ENE) 23:16:06 434.975-435.025
50 SAT 04 Dec 23:08:16 23:11:44 61° 73° (ENE) 23:15:13 437.505
JAS-2 04 Dec 23:17:26 23:22:24 43° 99° (E) 23:27:28 435.910
UKube-1 04 Dec 23:17:42 23:21:45 41° 68° (ENE) 23:25:50 .
ISS 04 Dec 23:25:10 23:27:55 24° 219° (SW) 23:30:38 145.825
TISAT 1 04 Dec 23:25:51 23:28:32 16° 60° (ENE) 23:31:13 437.305
TIGRISAT 04 Dec 23:28:53 23:32:48 31° 294° (WNW) 23:36:39 435.000
ANTELSAT 04 Dec 23:30:03 23:33:54 29° 295° (WNW) 23:37:39 437.575/2403.000
SPROUT 04 Dec 23:32:55 23:37:14 89° 78° (ENE) 23:41:35 437.525
ESTCUBE 1 04 Dec 23:37:48 23:41:34 26° 266° (W) 23:45:22 437.505/2401.250
BUGSAT 1 04 Dec 23:43:19 23:46:27 20° 92° (E) 23:49:31 437.445
AISAT 04 Dec 23:49:19 23:53:30 41° 262° (W) 23:57:44 437.250
NANOSAT C BR1 04 Dec 23:52:42 23:56:56 64° 101° (E) 00:01:07 145.865
QB50P2 04 Dec 23:57:13 00:01:31 82° 103° (ESE) 00:05:45 145.880/145.840
POLYITAN 1 04 Dec 23:57:48 00:02:05 79° 103° (ESE) 00:06:18 437.675
QB50P1 05 Dec 00:11:19 00:15:35 77° 285° (WNW) 00:19:48 145.935-145.965
DUCHIFAT 1 05 Dec 00:15:37 00:19:52 80° 287° (WNW) 00:24:05 145.980
O/OREOS (USA 219) 05 Dec 00:16:19 00:19:08 16° 45° (NE) 00:21:55 437.305
SWISSCUBE 05 Dec 00:17:37 00:20:30 16° 57° (ENE) 00:23:23 437.505
CUBEBUG 1 05 Dec 00:20:48 00:23:31 16° 270° (W) 00:26:15 437.445
BEESAT 05 Dec 00:21:50 00:24:41 16° 57° (ENE) 00:27:33 436.000
GONETS M04 05 Dec 00:25:53 00:34:11 51° 89° (E) 00:42:27
SO-50 05 Dec 00:26:13 00:27:28 11° 351° (N) 00:28:43 436.795
VELOX 1 05 Dec 00:27:38 00:30:49 19° 268° (W) 00:34:03 145.980
POPSAT HIP 1 05 Dec 00:32:51 00:36:57 47° 290° (WNW) 00:41:01 437.405
AUBIESAT-1 05 Dec 00:42:05 00:45:49 32° 60° (ENE) 00:49:46 437.475
50 SAT 05 Dec 00:44:46 00:45:26 10° 271° (W) 00:46:05 437.505
DX 1 05 Dec 00:44:57 00:48:19 22° 267° (W) 00:51:44 434.975-435.025
ITUPSAT 1 05 Dec 00:47:22 00:51:14 25° 62° (ENE) 00:55:07 437.325
M-CUBED/EXP-1 PRIME 05 Dec 00:52:52 00:56:51 46° 64° (ENE) 01:01:09 437.505
Cosmos 2499 05 Dec 00:53:14 01:01:48 77° 95° (E) 01:10:43 435.465 / 435.565
UKube-1 05 Dec 00:54:33 00:57:57 22° 267° (W) 01:01:23 .
TISAT 1 05 Dec 00:59:30 01:03:43 63° 259° (WSW) 01:07:57 437.305
Gurwin Techsat 1B 05 Dec 01:02:10 01:05:46 18° 89° (E) 01:09:22 435.225
JAS-2 05 Dec 01:03:01 01:07:23 28° 298° (WNW) 01:11:48 435.910
AO-85 05 Dec 01:06:54 01:07:54 11° 109° (ESE) 01:08:54 145.980
SPROUT 05 Dec 01:12:59 01:13:48 10° 274° (W) 01:14:37 437.525
Oscar 19 05 Dec 01:15:21 01:20:17 42° 98° (E) 01:25:12 437.125/150
BUGSAT 1 05 Dec 01:18:00 01:22:03 44° 290° (WNW) 01:26:00 437.445
NANOSAT C BR1 05 Dec 01:29:36 01:32:10 16° 300° (WNW) 01:34:45 145.865
QB50P2 05 Dec 01:34:42 01:36:42 13° 302° (WNW) 01:38:40 145.880/145.840
POLYITAN 1 05 Dec 01:35:10 01:37:17 14° 302° (WNW) 01:39:23 437.675
MOZHAYETS 4 05 Dec 01:38:19 01:41:36 20° 61° (ENE) 01:44:52
QB50P1 05 Dec 01:49:49 01:50:35 10° 304° (NW) 01:51:20 145.935-145.965
AO-7 05 Dec 01:51:01 01:52:53 11° 81° (E) 01:54:45 29.400- 29.500
SWISSCUBE 05 Dec 01:52:55 01:57:42 80° 256° (WSW) 02:02:29 437.505
DUCHIFAT 1 05 Dec 01:53:50 01:54:49 11° 304° (NW) 01:55:48 145.980
O/OREOS (USA 219) 05 Dec 01:54:40 01:59:12 85° 246° (WSW) 02:03:40 437.305
BEESAT 05 Dec 01:57:05 02:01:52 81° 255° (WSW) 02:06:41 436.000
PHONESAT 2.4 05 Dec 02:06:26 02:07:51 13° 169° (SSE) 02:09:15 2401.200-2431.200
SO-50 05 Dec 02:07:57 02:10:01 13° 16° (NNE) 02:12:04 436.795
AUBIESAT-1 05 Dec 02:16:25 02:20:10 32° 259° (W) 02:24:10 437.475
KKS-1 05 Dec 02:17:09 02:20:31 21° 62° (ENE) 02:23:55 437.445
GONETS M04 05 Dec 02:23:02 02:31:11 43° 291° (WNW) 02:39:23
ITUPSAT 1 05 Dec 02:24:13 02:28:49 47° 261° (W) 02:33:27 437.325
STARS 05 Dec 02:27:41 02:30:01 14° 57° (ENE) 02:32:22 437.465
M-CUBED/EXP-1 PRIME 05 Dec 02:28:25 02:31:36 21° 263° (W) 02:34:58 437.505
Gurwin Techsat 1B 05 Dec 02:40:57 02:46:17 72° 288° (WNW) 02:51:34 435.225
AO-85 05 Dec 02:42:48 02:47:39 71° 125° (SE) 02:52:09 145.980
Cosmos 2499 05 Dec 02:48:32 02:55:54 30° 299° (WNW) 03:03:29 435.465 / 435.565
Oscar 19 05 Dec 02:54:57 02:59:28 31° 297° (WNW) 03:04:00 437.125/150
MOZHAYETS 4 05 Dec 03:13:50 03:18:22 58° 259° (W) 03:22:54
CUBESAT XI-V 05 Dec 03:14:08 03:17:56 26° 64° (ENE) 03:21:45 437.345
ITAMSAT 1 05 Dec 03:20:10 03:25:21 67° 102° (ESE) 03:30:29 435.822/435.867
SWISSCUBE 05 Dec 03:35:35 03:36:16 10° 274° (W) 03:36:58 437.505
O/OREOS (USA 219) 05 Dec 03:37:17 03:37:47 10° 264° (W) 03:38:17 437.305
AO-7 05 Dec 03:39:23 03:47:37 55° 102° (ESE) 03:55:47 29.400- 29.500
BEESAT 05 Dec 03:39:33 03:40:25 10° 274° (W) 03:41:19 436.000
PHONESAT 2.4 05 Dec 03:40:47 03:42:31 16° 185° (S) 03:44:14 2401.200-2431.200
SO-50 05 Dec 03:47:39 03:51:51 34° 40° (NE) 03:55:58 436.795
KKS-1 05 Dec 03:52:25 03:56:46 50° 260° (W) 04:01:10 437.445
BRITE-PL 05 Dec 03:57:16 04:00:00 14° 86° (E) 04:02:47 437.365/2234.400
YUBILEINY 05 Dec 03:58:36 04:03:50 17° 50° (NE) 04:09:03 435.215
STARS 05 Dec 04:01:20 04:05:46 82° 258° (WSW) 04:10:14 437.465
Gurwin Techsat 1B 05 Dec 04:22:51 04:25:19 13° 308° (NW) 04:27:46 435.225
AO-85 05 Dec 04:24:39 04:28:29 24° 324° (NW) 04:32:06 145.980
GONETS M04 05 Dec 04:29:33 04:31:04 10° 319° (NW) 04:32:37
BEESAT 3 05 Dec 04:33:31 04:35:45 15° 112° (ESE) 04:38:00 437.485
STRAND 1 05 Dec 04:49:02 04:51:37 14° 54° (NE) 04:54:11 437.568
CUBESAT XI-V 05 Dec 04:50:49 04:55:08 41° 262° (W) 04:59:30 437.345
HORYU 2 05 Dec 04:54:34 04:58:19 26° 95° (E) 05:02:02 437.375
ITAMSAT 1 05 Dec 05:00:33 05:04:22 21° 302° (WNW) 05:08:09 435.822/435.867
BEESAT 2 05 Dec 05:00:38 05:02:35 13° 111° (ESE) 05:04:34 435.950
Cubesat XI-IV 05 Dec 05:13:09 05:16:03 15° 87° (E) 05:18:56 437.490
NOAA 15 05 Dec 05:13:39 05:16:55 16° 89° (E) 05:20:09 137.62
GOMX 1 05 Dec 05:15:29 05:20:16 30° 93° (E) 05:25:05 467.674
SO-50 05 Dec 05:28:08 05:32:24 41° 240° (WSW) 05:36:35 436.795
DOVE 4 05 Dec 05:32:04 05:35:53 20° 88° (E) 05:39:38 437.250
AO-7 05 Dec 05:32:30 05:40:12 43° 303° (WNW) 05:47:55 29.400- 29.500
BRITE-PL 05 Dec 05:33:46 05:39:08 85° 104° (ESE) 05:44:46 437.365/2234.400
RS-15 05 Dec 05:38:56 05:45:27 17° 93° (E) 05:52:05 29.354- 29.394
Cosmos 2504 05 Dec 05:45:41 05:53:30 33° 63° (ENE) 06:01:00 435.465 / 435.565
YUBILEINY 05 Dec 05:54:01 06:02:47 63° 76° (ENE) 06:11:32 435.215
BEESAT 3 05 Dec 06:09:00 06:12:53 67° 310° (NW) 06:16:51 437.485
LilacSat-2 05 Dec 06:17:50 06:21:35 58° 101° (E) 06:25:17 437.200
STRAND 1 05 Dec 06:24:51 06:29:59 79° 73° (ENE) 06:35:09 437.568
CUTE-I 05 Dec 06:25:51 06:31:09 60° 101° (ESE) 06:36:24 437.470
Cosmos 2491 05 Dec 06:26:03 06:34:11 44° 87° (E) 06:42:16 435.465 / 435.565
NOAA 18 05 Dec 06:26:30 06:31:42 39° 98° (E) 06:36:51 137.9125
HORYU 2 05 Dec 06:30:52 06:34:57 37° 293° (WNW) 06:39:01 437.375
BEESAT 2 05 Dec 06:35:53 06:39:49 75° 308° (NW) 06:43:51 435.950
AIST 1 05 Dec 06:48:16 06:52:41 69° 78° (ENE) 06:57:04
Cubesat XI-IV 05 Dec 06:51:28 06:56:52 87° 284° (WNW) 07:02:12 437.490
NOAA 15 05 Dec 06:52:01 06:57:18 79° 287° (WNW) 07:02:35 137.62
GOMX 1 05 Dec 06:53:18 06:58:29 46° 291° (WNW) 07:03:41 467.674
CINEMA 3 05 Dec 06:57:38 07:01:55 30° 93° (E) 07:06:02 145.822/145.860
HO-68 05 Dec 07:02:13 07:08:17 28° 93° (E) 07:14:19 435.675
DOVE 4 05 Dec 07:08:44 07:14:02 67° 287° (WNW) 07:19:13 437.250
BRITE-PL 05 Dec 07:13:30 07:17:01 18° 301° (WNW) 07:20:38 437.365/2234.400
AIST 2 05 Dec 07:20:11 07:21:12 11° 108° (ESE) 07:22:13 435.215
CUTE 1.7 + AOD 2 05 Dec 07:21:59 07:25:42 29° 95° (E) 07:29:23 437.475
CUBEBUG 2 05 Dec 07:23:25 07:25:45 14° 87° (E) 07:28:03 437.445
AO-7 05 Dec 07:27:05 07:30:50 14° 327° (NNW) 07:34:36 29.400- 29.500
Cosmos 2504 05 Dec 07:38:51 07:47:40 69° 266° (W) 07:56:00 435.465 / 435.565
CANX-2 05 Dec 07:39:32 07:43:39 51° 100° (E) 07:47:46 2200.000
RS-15 05 Dec 07:43:40 07:55:14 65° 117° (ESE) 08:07:17 29.354- 29.394
BEESAT 3 05 Dec 07:48:58 07:51:16 15° 331° (NNW) 07:53:35 437.485
AAUSAT CUBESAT 2 05 Dec 07:50:28 07:53:42 22° 93° (E) 07:56:57 437.432
YUBILEINY 05 Dec 07:51:29 07:59:04 34° 277° (W) 08:06:40 435.215
LilacSat-2 05 Dec 07:53:24 07:55:26 14° 299° (WNW) 07:57:27 437.200
Oscar 11 05 Dec 07:56:24 07:57:17 11° 86° (E) 07:58:11 145.826/435.025
CUTE-I 05 Dec 08:06:37 08:10:49 24° 300° (WNW) 08:14:59 437.470
STRAND 1 05 Dec 08:06:44 08:09:46 16° 272° (W) 08:12:49 437.568
SEEDS 05 Dec 08:06:56 08:11:04 59° 100° (E) 08:15:13 437.485
UWE-3 05 Dec 08:06:59 08:10:33 24° 93° (E) 08:14:01 435.000/436.395/437.385
NOAA 18 05 Dec 08:07:17 08:12:19 36° 297° (WNW) 08:17:19 137.9125
PRISM 05 Dec 08:07:53 08:11:53 63° 73° (ENE) 08:15:58 437.425
BEESAT 2 05 Dec 08:15:48 08:18:19 16° 330° (NNW) 08:20:51 435.950
COMPASS 1 05 Dec 08:19:10 08:23:16 54° 100° (E) 08:27:21 437.405
Cosmos 2491 05 Dec 08:22:31 08:30:57 49° 289° (WNW) 08:39:24 435.465 / 435.565
UNISAT 6 05 Dec 08:24:05 08:27:55 26° 64° (ENE) 08:31:43 437.425
AIST 1 05 Dec 08:27:32 08:29:42 13° 277° (W) 08:31:50
Cubesat XI-IV 05 Dec 08:33:00 08:36:11 16° 306° (NW) 08:39:22 437.490
NOAA 15 05 Dec 08:33:30 08:36:15 15° 307° (NW) 08:39:01 137.62
CINEMA 3 05 Dec 08:34:37 08:39:06 37° 293° (WNW) 08:43:25 145.822/145.860
CUSAT 1 05 Dec 08:46:59 08:48:23 13° 94° (E) 08:49:43 437.405
DOVE 4 05 Dec 08:48:32 08:50:44 13° 307° (NW) 08:52:56 437.250
HO-68 05 Dec 08:49:24 08:56:32 67° 293° (WNW) 09:03:40 435.675
ZACube-1 05 Dec 08:49:51 08:53:54 40° 97° (E) 08:57:51 437.345
TIGRISAT 05 Dec 08:53:38 08:58:04 43° 69° (ENE) 09:02:27 435.000
ANTELSAT 05 Dec 08:54:48 08:59:16 46° 70° (ENE) 09:03:44 437.575/2403.000
AIST 2 05 Dec 08:54:50 08:58:57 85° 126° (SE) 09:03:09 435.215
DELFI C3 05 Dec 08:57:27 09:00:03 17° 91° (E) 09:02:37 145.870
CUTE 1.7 + AOD 2 05 Dec 08:57:49 09:01:31 30° 293° (WNW) 09:05:12 437.475
FUNcube-1 05 Dec 08:58:03 09:02:10 45° 99° (E) 09:06:10 145.935
CUBEBUG 2 05 Dec 08:58:28 09:02:56 68° 286° (WNW) 09:07:12 437.445
CANX-2 05 Dec 09:16:13 09:19:10 19° 298° (WNW) 09:22:08 2200.000
NANOSAT C BR1 05 Dec 09:16:27 09:17:03 10° 56° (NE) 09:17:40 145.865
QB50P2 05 Dec 09:20:00 09:21:55 13° 58° (ENE) 09:23:50 145.880/145.840
POLYITAN 1 05 Dec 09:20:42 09:22:30 12° 57° (ENE) 09:24:17 437.675
DANDE 05 Dec 09:23:23 09:25:35 14° 93° (E) 09:27:34 436.750
AAUSAT CUBESAT 2 05 Dec 09:25:28 09:29:19 39° 291° (WNW) 09:33:11 437.432
Oscar 11 05 Dec 09:29:43 09:34:03 87° 284° (WNW) 09:38:21 145.826/435.025
AO-85 05 Dec 09:31:20 09:34:48 26° 37° (NE) 09:38:09 145.980
QB50P1 05 Dec 09:33:05 09:35:42 16° 60° (ENE) 09:38:18 145.935-145.965
JAS-2 05 Dec 09:33:26 09:38:53 33° 64° (ENE) 09:43:52 435.910
Cosmos 2504 05 Dec 09:34:31 09:39:18 16° 289° (WNW) 09:43:57 435.465 / 435.565
DUCHIFAT 1 05 Dec 09:37:03 09:39:29 15° 59° (ENE) 09:41:56 145.980
